Flag for Canada Weather past 2 weeks in Denare Beach, Saskatchewan, Canada

Now
9 °F

Overcast.


Feels Like: -3 °F
Forecast: -1 / 17 °F
Wind: 7 mph from West

Location: The Pas

Current Time: Feb 28, 2015 at 1:14:11 AM

Latest Report: Feb 28, 2015 at 12:00 AM


Visibility: 15 mi

Pressure: 30.19 "Hg

Humidity: 66%

Dew point: 0 °F

Location of Denare BeachLocation

Historic Weather in Denare Beach — Graph

°F

Denare Beach temperature yesterday

Maximum temperature yesterday: 14 °F (at 3:00 PM)
Minimum temperature yesterday: -2 °F (at 5:00 AM)
Average temperature yesterday: 6 °F

Past Weeks' High & Low Weather Summary

 TemperatureHumidityPressure
High30 °F (Feb 23, 2:00 PM)92% (Feb 15, 8:00 PM)30.87 "Hg (Feb 15, 8:00 PM)
Low-33 °F (Feb 14, 5:00 AM)37% (Feb 26, 4:00 PM)29.66 "Hg (Feb 23, 10:00 AM)
Average-5 °F67%30.32 "Hg
* Reported Midnight between Feb 12 and Feb 13 — Midnight between Feb 27 and Feb 28, Denare Beach, Weather by CustomWeather, © 2015

Note: Actual official high and low records may vary slightly from our data, if they occured in-between our weather recording intervals... More about our weather records

Advertising

Denare Beach weather history for previous 24 hours

 ConditionsComfort  
Time TempWeatherWind HumidityBarometerVisibility
12:00 AM
Sat, Feb 28
9 °FOvercast.7 mph66%30.19 "Hg15 mi
11:00 PM
Fri, Feb 27
10 °FOvercast.8 mph61%30.20 "Hg15 mi
10:00 PM10 °FOvercast.7 mph61%30.20 "Hg15 mi
9:00 PM10 °FOvercast.8 mph67%30.21 "Hg15 mi
8:00 PM12 °FOvercast.9 mph62%30.20 "Hg15 mi
7:00 PM12 °FOvercast.7 mph62%30.19 "Hg15 mi
6:00 PM14 °FPartly sunny.7 mph57%30.17 "Hg15 mi
5:00 PM14 °FPassing clouds.10 mph52%30.18 "Hg15 mi
4:00 PM12 °FPassing clouds.10 mph62%30.18 "Hg15 mi
3:00 PM14 °FPassing clouds.8 mph57%30.18 "Hg15 mi
2:00 PM12 °FPassing clouds.8 mph57%30.19 "Hg15 mi
1:00 PM9 °FScattered clouds.9 mph66%30.20 "Hg15 mi
12:00 PM7 °FLight snow. Broken clouds.12 mph61%30.21 "Hg13 mi
11:00 AM3 °FLight snow. Partly sunny.13 mph60%30.22 "Hg15 mi
10:00 AM0 °FPartly sunny.10 mph65%30.23 "Hg15 mi
9:00 AM-2 °FPartly sunny.14 mph65%30.22 "Hg15 mi
8:00 AM-2 °FMostly cloudy.10 mph65%30.22 "Hg15 mi
7:00 AM-2 °FOvercast.15 mph65%30.22 "Hg15 mi
6:00 AM0 °FPassing clouds.16 mph60%30.22 "Hg15 mi
5:00 AM-2 °FPassing clouds.9 mph65%30.24 "Hg15 mi
4:00 AM0 °FOvercast.13 mph60%30.26 "Hg15 mi
3:00 AM0 °FOvercast.14 mph60%30.28 "Hg15 mi
2:00 AM1 °FOvercast.10 mph55%30.30 "Hg15 mi
1:00 AM3 °FOvercast.14 mph55%30.31 "Hg15 mi
Weather by CustomWeather, © 2015

See weather overviewHow to use our weather pages